SL-14 DEB, 45312

Orbit data source: Space-Track

SL-14 DEB, 45312 is space debris in LEO originally from a launch on Thu, 15 Aug 1991 UTC launched from the Plesetsk Missile And Space Complex (PKMTR). Debris objects in space refer to the collection of defunct objects orbiting the Earth. Examples of debris include non-operational satellites, rocket bodies, and fragments generated from explosions, collisions, or faulty payload assembly.

Loading next visibility...
Identifier
45312, 1991-056BA
Orbit
LEO
Country
Flag of CISCIS
Related business
Manufacturer
Unknown
Mission
Spacecraft
Bus & Motor
Unknown
Mass
Unknown
Launch date (UTC)
1991-08-15 (34 years ago)
Launch vehicle
Unknown
Launch site
Plesetsk Missile And Space Complex (PKMTR)
Object type
Payload
Rocket body
Debris
Shape & HBR
Unknown shape, 0.1 m
Radar Cross Section
Small (<0.1 m²)

Expand to show TLE details & history
Last TLE update: 13 hours ago

TLE from 13 hours ago
0 SL-14 DEB
1 45312U 91056BA  25289.08708068  .00000957  00000-0  23445-2 0  9990
2 45312  82.5153 300.6659 0011398  27.9907 332.1827 13.20143850272347
Epoch: 2025-10-16T02:05Z
TLE epoch observation values (Epoch: 2025-10-16T02:05:23.770Z)
Latitude
-0.00012°
Longitude
-115.535°
Altitude
1,179.359 km
Speed
7.268 km/s
True Right ascension
20h 02m 39s
True Declination
0° 00' 00"
Sunlit
Object was in daylight at epoch
Visualization orbit readout
Latitude
Unknown
Longitude
Unknown
Altitude
Unknown
Speed
Unknown
Apparent Right ascension
Unknown
Apparent Declination
Unknown
Sunlit
N/A
Visualization observer readout
Local Sidereal Time
10:03:10
Azimuth
Unknown
Elevation
Unknown
Doppler factor
Unknown
Orbital elements
Apogee altitude
1,190.029 km
Perigee altitude
1,172.796 km
Semi-major axis
7,559.549 km
Eccentricity
0.00114
Inclination
82.5153°
RAAN
300.6659°
Arg. of periapsis
27.9907°
True anomaly
332.12167°
Mean anomaly
332.1827°
Eccentric anomaly
332.15219°
Mean motion
3.30217 °/min
Orbital period
109.02 mins
BSTAR
0.0023445
Loading maneuver chart data...
Computing Atmospheric mass density...
Loading historical data...
Loading historical data...
Loading historical data...
Loading historical data...
Loading historical data...
Loading historical data...
Loading historical data...

Documentation

Showing up to 5 results
|